{"data":{"norad_id":63765,"epoch":"2026-05-24T21:59:33.196416Z","epoch_age_seconds":82413,"freshness":"FRESH","line1":"1 63765U 25089Q   26144.91635644  .00016521  00000+0  60818-3 0  9996","line2":"2 63765  43.0030 334.9031 0001590 263.7388  96.3283 15.27599309 60607","mean_motion":15.27599309,"eccentricity":0.000159,"inclination_deg":43.003,"raan_deg":334.9031,"arg_perigee_deg":263.7388,"mean_anomaly_deg":96.3283,"bstar":0.00060818,"rev_number":6060,"period_min":94.265557173017,"perigee_km":481.90035916001,"apogee_km":484.08219795259,"semimajor_km":6861.1282785563,"source":"CELESTRAK","updated_at":"2026-05-25T13:38:20.106055Z"}}